When you browse on this site, cookies collect data to enhance your experience and personalize the content and advertising you see.
Visit our Privacy Policy to learn more. By continuing to use the site, you agree to this use of cookies and data.
  • en Suisse
  • Liste des pays
  • À 7 jours
  • Température de l'eau
  • Carte satellitaire
  • Carte météo
  • Widgets météo
  • user-avatar
    Se connecter

    Météo par heure à Serhiivka

    Ce jour, 21 Février, Jeudi

    Heure Température Précipitation Vent Pression Humidité
    00:00 +1°C° 0 mm 6 m/s 735 mmHg 78%
    01:00 +1°C° 0 mm 6 m/s 736 mmHg 78%
    02:00 +1°C° 0 mm 4 m/s 735 mmHg 81%
    03:00 0°C° 0 mm 5 m/s 736 mmHg 81%
    04:00 0°C° 0 mm 5 m/s 736 mmHg 80%
    05:00 -1°C° 0 mm 6 m/s 736 mmHg 80%
    06:00 -1°C° 0 mm 6 m/s 736 mmHg 80%
    07:00 -1°C° 0 mm 6 m/s 736 mmHg 81%
    08:00 -2°C° 0 mm 6 m/s 737 mmHg 81%
    09:00 -1°C° 0 mm 6 m/s 737 mmHg 78%
    10:00 -1°C° 0 mm 7 m/s 737 mmHg 74%
    11:00 0°C° 0 mm 7 m/s 737 mmHg 71%
    12:00 0°C° 0 mm 7 m/s 737 mmHg 71%
    13:00 +2°C° 0 mm 7 m/s 737 mmHg 72%
    14:00 +2°C° 0 mm 6 m/s 737 mmHg 72%
    15:00 +2°C° 0.1 mm 6 m/s 737 mmHg 77%
    16:00 +2°C° 0.1 mm 5 m/s 736 mmHg 81%
    17:00 +1°C° 0.1 mm 5 m/s 736 mmHg 86%
    18:00 +2°C° 0.2 mm 5 m/s 736 mmHg 87%
    19:00 +2°C° 0.2 mm 5 m/s 736 mmHg 88%
    20:00 +2°C° 0.2 mm 5 m/s 736 mmHg 89%
    21:00 +3°C° 0.3 mm 4 m/s 736 mmHg 89%
    22:00 +3°C° 0.3 mm 4 m/s 736 mmHg 88%
    23:00 +3°C° 0.3 mm 4 m/s 735 mmHg 88%

    Demain, 22 Février, Vendredi

    Heure Température Précipitation Vent Pression Humidité
    00:00 +1°C° 0.6 mm 4 m/s 735 mmHg 89%
    01:00 0°C° 0.6 mm 4 m/s 735 mmHg 90%
    02:00 -1°C° 0.6 mm 4 m/s 735 mmHg 91%
    03:00 -2°C° 0.7 mm 4 m/s 735 mmHg 91%
    04:00 -4°C° 0.7 mm 5 m/s 734 mmHg 92%
    05:00 -5°C° 0.7 mm 6 m/s 734 mmHg 92%
    06:00 -6°C° 0.5 mm 6 m/s 735 mmHg 91%
    07:00 -8°C° 0.5 mm 7 m/s 735 mmHg 89%
    08:00 -8°C° 0.5 mm 7 m/s 736 mmHg 88%
    09:00 -8°C° 0.2 mm 7 m/s 737 mmHg 82%
    10:00 -8°C° 0.2 mm 7 m/s 738 mmHg 76%
    11:00 -8°C° 0.2 mm 8 m/s 739 mmHg 71%
    12:00 -8°C° 0 mm 7 m/s 740 mmHg 68%
    13:00 -8°C° 0 mm 7 m/s 740 mmHg 66%
    14:00 -8°C° 0 mm 7 m/s 741 mmHg 64%
    15:00 -9°C° 0 mm 7 m/s 742 mmHg 63%
    16:00 -9°C° 0 mm 7 m/s 742 mmHg 63%
    17:00 -9°C° 0 mm 7 m/s 742 mmHg 62%
    18:00 -11°C° 0 mm 7 m/s 743 mmHg 64%
    19:00 -10°C° 0 mm 6 m/s 743 mmHg 66%
    20:00 -11°C° 0 mm 6 m/s 744 mmHg 67%
    21:00 -11°C° 0 mm 6 m/s 744 mmHg 68%
    22:00 -11°C° 0 mm 6 m/s 745 mmHg 69%
    23:00 -11°C° 0 mm 6 m/s 745 mmHg 70%

    Après-demain, 23 Février, Samedi

    Heure Température Précipitation Vent Pression Humidité
    00:00 -11°C° 0 mm 6 m/s 745 mmHg 70%
    01:00 -11°C° 0 mm 6 m/s 746 mmHg 71%
    02:00 -11°C° 0 mm 6 m/s 746 mmHg 71%
    03:00 -11°C° 0 mm 6 m/s 746 mmHg 72%
    04:00 -11°C° 0 mm 6 m/s 746 mmHg 72%
    05:00 -11°C° 0 mm 6 m/s 746 mmHg 73%
    06:00 -11°C° 0 mm 6 m/s 747 mmHg 73%
    07:00 -11°C° 0 mm 6 m/s 747 mmHg 74%
    08:00 -12°C° 0 mm 6 m/s 748 mmHg 74%
    09:00 -11°C° 0 mm 6 m/s 748 mmHg 71%
    10:00 -11°C° 0 mm 6 m/s 748 mmHg 69%
    11:00 -10°C° 0 mm 6 m/s 748 mmHg 66%
    12:00 -10°C° 0 mm 6 m/s 748 mmHg 66%
    13:00 -10°C° 0 mm 6 m/s 748 mmHg 65%
    14:00 -9°C° 0 mm 6 m/s 748 mmHg 64%
    15:00 -9°C° 0 mm 6 m/s 748 mmHg 65%
    16:00 -10°C° 0 mm 5 m/s 748 mmHg 67%
    17:00 -10°C° 0 mm 5 m/s 748 mmHg 68%
    18:00 -10°C° 0 mm 5 m/s 748 mmHg 70%
    19:00 -10°C° 0 mm 4 m/s 748 mmHg 73%
    20:00 -10°C° 0 mm 4 m/s 749 mmHg 75%
    21:00 -10°C° 0 mm 4 m/s 748 mmHg 75%
    22:00 -10°C° 0 mm 4 m/s 748 mmHg 75%
    23:00 -9°C° 0 mm 3 m/s 748 mmHg 75%

    24 Février, Dimanche

    Heure Température Précipitation Vent Pression Humidité
    00:00 -9°C° 0 mm 3 m/s 748 mmHg 75%
    01:00 -9°C° 0 mm 3 m/s 748 mmHg 75%
    02:00 -9°C° 0 mm 3 m/s 748 mmHg 75%
    03:00 -9°C° 0 mm 3 m/s 748 mmHg 76%
    04:00 -9°C° 0 mm 3 m/s 747 mmHg 77%
    05:00 -10°C° 0 mm 3 m/s 747 mmHg 78%
    06:00 -9°C° 0 mm 3 m/s 747 mmHg 76%
    07:00 -9°C° 0 mm 3 m/s 747 mmHg 74%
    08:00 -10°C° 0 mm 4 m/s 748 mmHg 71%
    09:00 -9°C° 0 mm 4 m/s 747 mmHg 67%
    10:00 -8°C° 0 mm 4 m/s 747 mmHg 63%
    11:00 -7°C° 0 mm 4 m/s 747 mmHg 59%
    12:00 -5°C° 0 mm 4 m/s 747 mmHg 57%
    13:00 -5°C° 0 mm 4 m/s 747 mmHg 56%
    14:00 -4°C° 0 mm 4 m/s 747 mmHg 54%
    15:00 -5°C° 0.1 mm 4 m/s 746 mmHg 62%
    16:00 -5°C° 0.1 mm 4 m/s 746 mmHg 70%
    17:00 -5°C° 0.1 mm 3 m/s 746 mmHg 78%
    18:00 -6°C° 0 mm 3 m/s 746 mmHg 82%
    19:00 -5°C° 0 mm 2 m/s 746 mmHg 87%
    20:00 -5°C° 0 mm 2 m/s 746 mmHg 91%
    21:00 -4°C° 0 mm 1 m/s 747 mmHg 92%
    22:00 -4°C° 0 mm 1 m/s 747 mmHg 93%
    23:00 -5°C° 0 mm 0 m/s 747 mmHg 93%

    25 Février, Lundi

    Heure Température Précipitation Vent Pression Humidité
    00:00 -5°C° 0 mm 0 m/s 747 mmHg 93%
    01:00 -5°C° 0 mm 0 m/s 747 mmHg 93%
    02:00 -6°C° 0 mm 0 m/s 747 mmHg 93%
    03:00 -6°C° 0 mm 0 m/s 747 mmHg 92%
    04:00 -6°C° 0 mm 1 m/s 747 mmHg 92%
    05:00 -6°C° 0 mm 1 m/s 747 mmHg 92%
    06:00 -4°C° 0 mm 1 m/s 747 mmHg 91%
    07:00 -6°C° 0 mm 2 m/s 747 mmHg 91%
    08:00 -6°C° 0 mm 2 m/s 747 mmHg 90%
    09:00 -5°C° 0 mm 2 m/s 747 mmHg 86%
    10:00 -4°C° 0 mm 3 m/s 747 mmHg 81%
    11:00 -2°C° 0 mm 3 m/s 747 mmHg 76%
    12:00 -2°C° 0 mm 4 m/s 747 mmHg 74%
    13:00 -2°C° 0 mm 4 m/s 747 mmHg 73%
    14:00 -1°C° 0 mm 4 m/s 746 mmHg 71%
    15:00 -1°C° 0 mm 4 m/s 746 mmHg 72%
    16:00 -1°C° 0 mm 4 m/s 745 mmHg 73%
    17:00 0°C° 0 mm 3 m/s 745 mmHg 74%
    18:00 -2°C° 0 mm 4 m/s 745 mmHg 77%
    19:00 -2°C° 0 mm 4 m/s 745 mmHg 79%
    20:00 -2°C° 0 mm 4 m/s 745 mmHg 81%
    21:00 -2°C° 0 mm 4 m/s 745 mmHg 84%
    22:00 -2°C° 0 mm 4 m/s 745 mmHg 87%
    23:00 -2°C° 0 mm 4 m/s 745 mmHg 89%

    26 Février, Mardi

    Heure Température Précipitation Vent Pression Humidité
    00:00 -2°C° 0 mm 4 m/s 744 mmHg 91%
    01:00 -4°C° 0 mm 5 m/s 744 mmHg 94%
    02:00 -4°C° 0 mm 5 m/s 744 mmHg 96%
    03:00 -4°C° 0 mm 5 m/s 743 mmHg 94%
    04:00 -4°C° 0 mm 5 m/s 743 mmHg 93%
    05:00 -4°C° 0 mm 5 m/s 743 mmHg 91%
    06:00 -4°C° 0 mm 5 m/s 742 mmHg 91%
    07:00 -4°C° 0 mm 5 m/s 742 mmHg 91%
    08:00 -4°C° 0 mm 5 m/s 742 mmHg 91%
    09:00 -4°C° 0 mm 5 m/s 742 mmHg 87%
    10:00 -2°C° 0 mm 5 m/s 741 mmHg 83%
    11:00 -1°C° 0 mm 5 m/s 741 mmHg 79%
    12:00 0°C° 0 mm 5 m/s 740 mmHg 74%
    13:00 +1°C° 0 mm 5 m/s 739 mmHg 69%
    14:00 +2°C° 0 mm 6 m/s 738 mmHg 64%
    15:00 +2°C° 0 mm 6 m/s 737 mmHg 65%
    16:00 +1°C° 0 mm 6 m/s 736 mmHg 66%
    17:00 +1°C° 0 mm 6 m/s 735 mmHg 68%
    18:00 0°C° 0 mm 7 m/s 735 mmHg 74%
    19:00 0°C° 0 mm 8 m/s 735 mmHg 80%
    20:00 -1°C° 0 mm 8 m/s 734 mmHg 86%
    21:00 -1°C° 0 mm 8 m/s 734 mmHg 86%
    22:00 -1°C° 0 mm 8 m/s 734 mmHg 86%
    23:00 -2°C° 0 mm 8 m/s 733 mmHg 87%
    Voir plus